Tracadie, Nova Scotia

10:06 PM AST on December 05, 2016 (GMT -0400)
Tracadie

Weather History for CXTD - December, 2012

Change the Weather History Date:

Thursday, December 27, 2012

  Actual Average Record
Temperature  
Mean Temperature 30 °F -  
Max Temperature 34 °F - - ()
Min Temperature 28 °F - - ()
Degree Days  
Heating Degree Days 34    
Moisture  
Dew Point 26 °F    
Average Humidity 84    
Maximum Humidity 99    
Minimum Humidity 70    
Precipitation  
Precipitation 0.43 in - - ()
Sea Level Pressure  
Sea Level Pressure 30.08 in    
Wind  
Wind Speed 8 mph ()    
Max Wind Speed 18 mph    
Max Gust Speed 31 mph    
T = Trace of Precipitation, MM = Missing Value Source: Averaged Metar Reports

Daily Weather History Graph

Daily Weather History Graph

Search for Another Location

Airport or City:

Trip Planner

Search our weather history database for the weather conditions in past years. The results will help you decide how hot, cold, wet, or windy it might be!

Date:

Astronomy

Dec. 27, 2012 Rise Set
Actual Time 7:46 AM AST 4:29 PM AST
Civil Twilight 7:12 AM AST 5:03 PM AST
Nautical Twilight 6:34 AM AST 5:41 PM AST
Astronomical Twilight 5:58 AM AST 6:17 PM AST
Moon 4:10 PM AST (12/27) 6:52 AM AST (12/27)
Length of Visible Light 9h 51m
Length of Day
8h 43m
Waxing Gibbous, 99% of the Moon is Illuminated
Dec 27
Waxing Gibbous
Dec 28
Full
Jan 4
Last Quarter
Jan 11
New
Jan 18
First Quarter

Hourly Weather History & Observations

Time (AST) Temp. Windchill Dew Point Humidity Pressure Visibility Wind Dir Wind Speed Gust Speed Precip Events Conditions
12:00 AM 30.9 °F 24.3 °F 25.3 °F 80% 30.28 in - NNW 6.9 mph - N/A   Unknown
1:00 AM 30.6 °F 22.4 °F 24.3 °F 77% 30.28 in - NNW 9.2 mph - N/A   Unknown
2:00 AM 31 °F - 25 °F 70% 30.28 in - North 6.9 mph - -  
2:00 AM 30.6 °F 23.8 °F 25.0 °F 80% 30.28 in - North 6.9 mph - N/A   Unknown
3:00 AM 30.6 °F 22.4 °F 24.3 °F 77% 30.28 in - North 9.2 mph - N/A   Unknown
4:00 AM 29.8 °F 24.9 °F 23.5 °F 77% 30.27 in - NNW 4.6 mph - N/A   Unknown
5:00 AM 29.5 °F 23.4 °F 24.1 °F 80% 30.26 in - North 5.8 mph - N/A   Unknown
6:00 AM 29.7 °F 23.7 °F 23.7 °F 79% 30.26 in - NNE 5.8 mph - N/A   Unknown
7:00 AM 29.1 °F 24.1 °F 23.5 °F 80% 30.24 in - NE 4.6 mph - N/A   Unknown
8:00 AM 28 °F - 24 °F 77% 30.25 in - East 4.6 mph - -  
8:00 AM 28.2 °F 23.1 °F 23.7 °F 83% 30.25 in - East 4.6 mph - N/A   Unknown
9:00 AM 28.4 °F 24.6 °F 23.2 °F 81% 30.27 in - East 3.5 mph - N/A   Unknown
10:00 AM 28.6 °F 22.4 °F 23.4 °F 81% 30.24 in - ENE 5.8 mph - N/A   Unknown
11:00 AM 29.1 °F 21.3 °F 23.5 °F 80% 30.20 in - East 8.1 mph - N/A   Unknown
12:00 PM 29.1 °F 20.6 °F 23.4 °F 79% 30.14 in - East 9.2 mph - N/A   Unknown
1:00 PM 29.8 °F 23.0 °F 24.4 °F 80% 30.11 in - East 6.9 mph - N/A   Unknown
2:00 PM 30 °F - 25 °F 74% 30.07 in - East 9.2 mph - -  
2:00 PM 30.2 °F 21.9 °F 25.0 °F 81% 30.07 in - East 9.2 mph - N/A   Unknown
3:00 PM 31.6 °F 24.4 °F 26.1 °F 80% 30.05 in - ESE 8.1 mph - N/A   Unknown
4:00 PM 31.8 °F 23.3 °F 27.1 °F 83% 30.02 in - East 10.4 mph 18.4 mph N/A   Unknown
5:00 PM 30.9 °F 22.2 °F 29.5 °F 94% 29.96 in - East 10.4 mph 18.4 mph 0.03 in   Unknown
6:00 PM 31.5 °F 21.4 °F 30.6 °F 96% 29.87 in - East 13.8 mph 31.1 mph 0.08 in   Unknown
7:00 PM 31.6 °F 20.4 °F 30.6 °F 96% 29.80 in - East 17.3 mph 29.9 mph 0.07 in   Unknown
8:00 PM 32 °F - 31 °F 97% 29.77 in - East 17.3 mph - -  
8:00 PM 31.6 °F 20.4 °F 31.5 °F 99% 29.77 in - East 17.3 mph 25.3 mph 0.04 in   Unknown
9:00 PM 32.9 °F 22.0 °F 32.0 °F 96% 29.71 in - East 17.3 mph 28.8 mph 0.05 in   Unknown
10:00 PM 33.6 °F 22.6 °F 32.9 °F 97% 29.64 in - East 18.4 mph 31.1 mph 0.06 in   Unknown
11:00 PM 34.7 °F 24.0 °F 34.0 °F 97% 29.60 in - East 18.4 mph 31.1 mph 0.05 in   Unknown